Terug naar catalogus

NOAA 16 DEB

ActiefSSO
NORAD 41287·DEBRIS·🇺🇸 United States

Gelanceerd Sep 21, 2000 vanaf Vandenberg Space Force Base

Loading…

Volgende Passages (komende 24 uur)

TLE

VersSource: Space-Track

Epoch: Sep 12, 2026, 10:31 UTC

1 41287U 00055GP  26255.43835735  .00003335  00000-0  13170-2 0  9998
2 41287  98.8648 331.2486 0025912 337.8184  22.1874 14.29556504551744

Volg NOAA 16 DEB in realtime met AllMySat

Download on the App Store